[[{"header":{"parameterUnit":"m.s-1","parameterCategory":1,"la1":30.2991,"la2":30.254,"lo1":-89.0895,"lo2":-89.0444,"dy":0.0017,"dx":0.0017,"nx":28,"ny":28,"refTime":"2024-06-01T21:00:00:Z","depth":0,"parameterNumber":2,"parameterNumberName":"U-component_of_WINDS"},"data":[0,0,0,0,0,0,0,0,0,0,0,0,0,0,0,0,0,0,0,0,0,0,0,0,0,0,0,0,0,0,0,0,0,0,0,0,0,0,0,0,0,0,0,0,0,0,0,0,0,0,0,0,0,0,0,0,0,0,-1.122,-1.1221,0,-1.128,-1.1281,-1.1281,-1.133,-1.1331,-1.1331,-1.1332,-1.1391,-1.1392,-1.1393,0,0,0,0,0,0,0,0,0,0,0,0,0,-1.1148,-1.115,-1.122,-1.1221,-1.1222,-1.128,-1.1281,-1.1282,-1.133,-1.1331,-1.1331,-1.1332,-1.1391,-1.1392,-1.1393,0,0,0,0,0,0,0,0,0,0,0,0,0,-1.1191,-1.115,-1.122,-1.1253,-1.1257,-1.128,-1.1281,-1.1282,-1.133,-1.1331,-1.1331,-1.1332,-1.139,-1.1392,-1.1393,-1.1388,0,0,-1.1398,-1.1399,0,0,0,0,0,0,0,0,-1.1189,-1.1194,-1.1248,-1.1251,-1.1255,-1.1298,-1.1277,-1.1317,-1.133,-1.1302,-1.1332,-1.1332,-1.1359,-1.1364,-1.1373,-1.1391,-1.1394,-1.1399,-1.14,-1.14,-1.1401,0,0,0,0,0,0,0,-1.1186,-1.1191,-1.1244,-1.1248,-1.1253,-1.1265,-1.1272,-1.1285,-1.1326,-1.1304,-1.1308,-1.1315,-1.1362,-1.1371,-1.1375,-1.1395,-1.1399,-1.14,-1.1401,-1.1402,-1.1413,-1.1412,0,0,0,0,0,0,-1.1178,-1.1188,-1.1242,-1.1246,-1.1223,-1.1266,-1.1273,-1.1284,-1.1326,-1.1333,-1.1314,-1.1317,-1.1368,-1.1373,-1.1377,-1.1374,-1.14,-1.1402,-1.1403,-1.1413,-1.1413,-1.1412,0,0,0,0,0,0,-1.1176,-1.1182,-1.124,-1.1218,-1.1227,-1.1266,-1.1277,-1.1284,-1.1294,-1.1333,-1.134,-1.1316,-1.1369,-1.1375,-1.1386,-1.1377,-1.1403,-1.1404,-1.1414,-1.1413,-1.1412,-1.1368,0,0,0,0,0,0,-1.1174,-1.1181,-1.1179,-1.1218,-1.1227,-1.1247,-1.1277,-1.1285,-1.1297,-1.1301,-1.1337,-1.1344,-1.137,-1.1383,-1.1387,-1.138,-1.1405,-1.1415,-1.1414,-1.1412,-1.137,-1.1365,-1.1361,0,0,0,0,0,-1.1171,-1.1164,-1.1179,-1.1185,-1.1226,-1.1246,-1.1252,-1.1283,-1.1296,-1.1295,-1.132,-1.1343,-1.1378,-1.1384,-1.1389,-1.1382,-1.1416,-1.1414,-1.1413,-1.1372,-1.1366,-1.1361,0,0,0,0,0,0,-1.1122,-1.1169,-1.1186,-1.1192,-1.1215,-1.1254,-1.1253,-1.1275,-1.1294,-1.1297,-1.1334,-1.1342,-1.1349,-1.1367,-1.1372,-1.138,-1.14,-1.1399,-1.1367,-1.1362,-1.1358,-1.1352,-1.1407,0,0,0,0,0,-1.1112,-1.1125,-1.1165,-1.1166,-1.1177,-1.1213,-1.1223,-1.1245,-1.127,-1.128,-1.1306,-1.1329,-1.1345,-1.1355,-1.1372,-1.1374,-1.1382,-1.1372,-1.1367,-1.1364,-1.1362,-1.1365,-1.136,-1.1407,-1.1407,-1.1407,0,0,-1.1091,-1.1119,-1.1124,-1.1157,-1.1177,-1.1189,-1.1221,-1.1232,-1.1241,-1.1281,-1.1293,-1.1313,-1.1342,-1.1348,-1.1352,-1.1363,-1.1352,-1.1362,-1.1358,-1.1359,-1.1363,-1.1358,-1.1354,-1.1405,-1.1406,-1.1406,0,0,-1.1059,-1.1081,-1.1084,-1.1105,-1.1136,-1.116,-1.1161,-1.1198,-1.1213,-1.1226,-1.1256,-1.1269,-1.1296,-1.1315,-1.1328,-1.1306,-1.1327,-1.1311,-1.1286,-1.1289,-1.1285,-1.1282,-1.1273,-1.127,-1.1309,-1.1309,-1.1309,0,-1.1028,-1.1048,-1.1083,-1.1093,-1.1107,-1.1145,-1.1149,-1.1167,-1.1201,-1.121,-1.1222,-1.1258,-1.128,-1.1292,-1.1287,-1.1296,-1.1298,-1.1305,-1.1283,-1.128,-1.1278,-1.127,-1.1267,-1.1307,-1.1307,-1.1308,-1.1308,0,-1.1009,-1.1022,-1.1021,-1.1055,-1.1069,-1.1075,-1.1112,-1.1122,-1.1144,-1.1167,-1.118,-1.1208,-1.1232,-1.1237,-1.1257,-1.1252,-1.1258,-1.1276,-1.1296,-1.127,-1.1264,-1.1261,-1.1304,-1.1305,-1.1305,-1.1306,0,0,-1.0944,-1.0999,-1.0998,-1.1014,-1.1053,-1.1063,-1.1073,-1.1097,-1.1105,-1.1128,-1.1136,-1.116,-1.1178,-1.1193,-1.1217,-1.1219,-1.1199,-1.1237,-1.1238,-1.1228,-1.1194,-1.1179,-1.1175,-1.1215,-1.1214,-1.1214,-1.1191,0,-1.0917,-1.0935,-1.0969,-1.0976,-1.0989,-1.1027,-1.1035,-1.106,-1.1082,-1.1097,-1.1122,-1.1138,-1.1161,-1.117,-1.1174,-1.12,-1.1193,-1.1203,-1.1222,-1.1222,-1.1211,-1.1171,-1.1155,-1.1132,-1.1189,-1.1189,-1.1189,0,-1.0887,-1.0909,-1.0918,-1.0957,-1.0964,-1.097,-1.0996,-1.1009,-1.1038,-1.1055,-1.1073,-1.11,-1.1111,-1.1132,-1.1149,-1.1155,-1.1165,-1.118,-1.118,-1.1181,-1.1202,-1.117,-1.1125,-1.1121,-1.1185,-1.1185,-1.1185,0,-1.0838,-1.087,-1.088,-1.0893,-1.0938,-1.0942,-1.0961,-1.0991,-1.1004,-1.1027,-1.1036,-1.1059,-1.1072,-1.1089,-1.1122,-1.1134,-1.1135,-1.1158,-1.1148,-1.1147,-1.1145,-1.1144,-1.1099,-1.1154,-1.1154,-1.1154,-1.1154,0,-1.0803,-1.0806,-1.0859,-1.0864,-1.087,-1.0909,-1.0913,-1.0936,-1.0963,-1.0974,-1.1009,-1.1019,-1.1062,-1.1076,-1.1102,-1.1112,-1.1118,-1.1131,-1.1137,-1.1127,-1.1125,-1.1132,-1.1134,-1.1154,-1.1154,-1.1154,-1.1154,0,-1.0747,-1.0783,-1.0796,-1.0839,-1.085,-1.0852,-1.0889,-1.0896,-1.0922,-1.0936,-1.0941,-1.0982,-1.1001,-1.1036,-1.1065,-1.1083,-1.1087,-1.1099,-1.1077,-1.108,-1.1068,-1.1068,-1.1025,-1.1021,-1.108,-1.1079,-1.1079,0,-1.0721,-1.0725,-1.0769,-1.078,-1.0798,-1.0814,-1.0828,-1.0867,-1.088,-1.0915,-1.0918,-1.094,-1.096,-1.0989,-1.1021,-1.1044,-1.1056,-1.1039,-1.1059,-1.1049,-1.1054,-1.1053,-1.1053,-1.1034,-1.1033,-1.1032,-1.1032,0,-1.0671,-1.0689,-1.0708,-1.0733,-1.0749,-1.0771,-1.0794,-1.0801,-1.0846,-1.0859,-1.088,-1.0895,-1.0926,-1.0947,-1.0975,-1.0995,-1.102,-1.1026,-1.1025,-1.1012,-1.0999,-1.1005,-1.1062,-1.1026,-1.1026,-1.1027,-1.1027,-1.1027,-1.0629,-1.0635,-1.0667,-1.0687,-1.0709,-1.0731,-1.074,-1.0768,-1.0787,-1.0815,-1.0838,-1.0856,-1.0887,-1.0927,-1.0946,-1.0962,-1.0973,-1.0972,-1.0971,-1.0969,-1.0965,-1.0999,-1.0967,-1.0967,-1.0967,-1.0968,-1.0968,0,-1.058,-1.0603,-1.0621,-1.0654,-1.067,-1.0695,-1.0723,-1.0734,-1.0751,-1.0778,-1.0797,-1.0822,-1.0843,-1.0878,-1.0903,-1.0909,-1.0921,-1.0914,-1.0912,-1.0917,-1.0953,-1.0951,-1.0903,-1.0903,-1.0903,-1.0903,-1.0903,-1.0903,-1.0556,-1.0566,-1.0588,-1.0611,-1.0635,-1.0654,-1.0668,-1.0688,-1.071,-1.0736,-1.0754,-1.0778,-1.0808,-1.0836,-1.0857,-1.0867,-1.0873,-1.0862,-1.0875,-1.0908,-1.0914,-1.092,-1.0918,-1.0864,-1.0864,-1.0837,-1.0837,-1.0837]},{"header":{"parameterUnit":"m.s-1","parameterCategory":1,"la1":30.2991,"la2":30.254,"lo1":-89.0895,"lo2":-89.0444,"dy":0.0017,"dx":0.0017,"nx":28,"ny":28,"refTime":"2024-06-01T21:00:00:Z","depth":0,"parameterNumber":3,"parameterNumberName":"V-component_of_WINDS"},"data":[0,0,0,0,0,0,0,0,0,0,0,0,0,0,0,0,0,0,0,0,0,0,0,0,0,0,0,0,0,0,0,0,0,0,0,0,0,0,0,0,0,0,0,0,0,0,0,0,0,0,0,0,0,0,0,0,0,0,4.8685,4.8685,0,4.8657,4.8657,4.8657,4.8584,4.8582,4.8581,4.8579,4.8553,4.8554,4.8554,0,0,0,0,0,0,0,0,0,0,0,0,0,4.8678,4.8678,4.8685,4.8685,4.8685,4.8658,4.8657,4.8657,4.8584,4.8582,4.858,4.8579,4.8553,4.8553,4.8554,0,0,0,0,0,0,0,0,0,0,0,0,0,4.8669,4.8679,4.8685,4.8645,4.8641,4.8658,4.8657,4.8657,4.8585,4.8582,4.858,4.8578,4.8552,4.8553,4.8554,4.8608,0,0,4.8558,4.8558,0,0,0,0,0,0,0,0,4.8669,4.8669,4.8651,4.8648,4.8644,4.8622,4.8645,4.8641,4.8585,4.8606,4.8579,4.8577,4.8578,4.8577,4.8577,4.8607,4.8606,4.8558,4.8559,4.8559,4.8559,0,0,0,0,0,0,0,4.867,4.867,4.8674,4.8651,4.8647,4.8629,4.8625,4.8644,4.8606,4.8604,4.8599,4.8596,4.8575,4.8576,4.8575,4.8605,4.8558,4.8559,4.856,4.856,4.8678,4.868,0,0,0,0,0,0,4.8676,4.8671,4.8675,4.8674,4.8651,4.8631,4.8627,4.8631,4.8605,4.8599,4.8598,4.8593,4.8575,4.8574,4.8574,4.8634,4.8559,4.856,4.8561,4.8676,4.8679,4.8681,0,0,0,0,0,0,4.8676,4.8677,4.8676,4.8671,4.8669,4.8634,4.8639,4.8632,4.8632,4.8601,4.8594,4.8606,4.8573,4.8573,4.86,4.8633,4.8561,4.8562,4.8673,4.8677,4.868,4.8756,0,0,0,0,0,0,4.8677,4.8678,4.8697,4.8672,4.867,4.8702,4.8641,4.8633,4.8634,4.8627,4.8606,4.86,4.8571,4.8599,4.8601,4.8633,4.8563,4.867,4.8674,4.8679,4.8751,4.8762,4.8772,0,0,0,0,0,4.8677,4.8721,4.8699,4.87,4.8693,4.8704,4.8703,4.8669,4.8637,4.8657,4.8636,4.8601,4.8629,4.8602,4.8604,4.8637,4.8667,4.8673,4.8678,4.8746,4.876,4.8772,0,0,0,0,0,0,4.8752,4.8716,4.8692,4.8729,4.872,4.8692,4.8715,4.8685,4.8685,4.8678,4.8636,4.8632,4.8665,4.8654,4.8625,4.8687,4.8642,4.8649,4.8693,4.8706,4.8717,4.8718,4.8563,0,0,0,0,0,4.8772,4.8783,4.8752,4.8788,4.8785,4.8751,4.8755,4.8729,4.8718,4.8714,4.8696,4.8688,4.8694,4.87,4.8705,4.8749,4.8743,4.8773,4.8784,4.8793,4.8798,4.882,4.8833,4.8699,4.8699,4.8699,0,0,4.8816,4.8798,4.8807,4.8803,4.8793,4.8806,4.8749,4.8765,4.8774,4.8717,4.8741,4.8728,4.8716,4.8752,4.8767,4.8743,4.8834,4.88,4.8807,4.8807,4.8827,4.884,4.8851,4.8703,4.8703,4.8702,0,0,4.89,4.8888,4.8916,4.8907,4.8893,4.887,4.8877,4.8854,4.8842,4.8866,4.8823,4.8834,4.8847,4.884,4.8838,4.8921,4.8888,4.8924,4.8979,4.9002,4.9012,4.9021,4.905,4.9061,4.893,4.893,4.893,0,4.8956,4.8972,4.8935,4.8953,4.8952,4.8901,4.8929,4.8923,4.8911,4.8912,4.8886,4.8901,4.889,4.8923,4.8943,4.8944,4.895,4.8926,4.9013,4.9022,4.903,4.9057,4.9068,4.8935,4.8934,4.8934,4.8933,0,4.9041,4.9053,4.9078,4.9067,4.9069,4.9093,4.9059,4.9066,4.904,4.9021,4.9045,4.903,4.903,4.9037,4.9012,4.9067,4.9052,4.9021,4.8975,4.9048,4.9072,4.9082,4.8941,4.8939,4.8938,4.8937,0,0,4.9171,4.9139,4.9148,4.9142,4.9123,4.9132,4.9154,4.9153,4.916,4.9154,4.9171,4.9183,4.9154,4.9152,4.9126,4.9146,4.9212,4.9112,4.9111,4.913,4.927,4.9293,4.9305,4.919,4.9192,4.9194,4.9271,0,4.925,4.9283,4.925,4.929,4.9301,4.9253,4.9272,4.9263,4.9245,4.9253,4.9234,4.9243,4.9204,4.9202,4.9219,4.92,4.9239,4.9194,4.9205,4.9206,4.9208,4.9318,4.9342,4.9416,4.928,4.9282,4.9283,0,4.9346,4.9343,4.9385,4.9362,4.9366,4.9383,4.938,4.9387,4.9376,4.9362,4.936,4.9329,4.9349,4.9305,4.9332,4.9302,4.9305,4.9296,4.9298,4.9297,4.9248,4.9319,4.9438,4.9449,4.9298,4.9297,4.9296,0,4.9435,4.9442,4.9468,4.9464,4.9439,4.9452,4.9443,4.9429,4.9431,4.9429,4.943,4.9431,4.9431,4.9432,4.9402,4.9373,4.9433,4.9387,4.9421,4.9422,4.9435,4.9434,4.9556,4.944,4.9439,4.9439,4.9439,0,4.9525,4.9552,4.9507,4.9523,4.9552,4.9514,4.9544,4.9529,4.9518,4.953,4.949,4.9502,4.9462,4.9471,4.9448,4.9473,4.9474,4.9463,4.9456,4.9466,4.9467,4.9466,4.946,4.9442,4.9441,4.9441,4.944,0,4.9629,4.96,4.9624,4.9599,4.9593,4.9615,4.9594,4.9607,4.9588,4.9604,4.9605,4.9574,4.9582,4.9553,4.9557,4.9541,4.9578,4.9564,4.9582,4.9577,4.9613,4.9609,4.9736,4.9751,4.9627,4.9628,4.9629,0,4.9688,4.9708,4.9684,4.9689,4.9681,4.969,4.9691,4.9656,4.9659,4.9648,4.9663,4.9667,4.9668,4.9684,4.9662,4.9664,4.9649,4.9693,4.9649,4.9658,4.9648,4.9647,4.9648,4.9702,4.9704,4.9705,4.9706,0,4.9796,4.978,4.9784,4.9782,4.9785,4.9782,4.9777,4.9784,4.9745,4.9751,4.9758,4.976,4.9763,4.9768,4.9765,4.9756,4.9725,4.972,4.9728,4.9737,4.9746,4.9741,4.9605,4.9717,4.9716,4.9715,4.9715,4.9714,4.9878,4.9893,4.9878,4.9883,4.9875,4.9871,4.9883,4.9864,4.9869,4.9868,4.9847,4.9859,4.9847,4.9841,4.9835,4.9843,4.9822,4.9834,4.9837,4.984,4.9846,4.9746,4.9843,4.9843,4.9842,4.9842,4.9842,0,4.9982,4.9971,4.9976,4.9969,4.9973,4.9943,4.9936,4.9942,4.9952,4.9943,4.9945,4.9954,4.9958,4.9937,4.9939,4.995,4.9936,4.9952,4.995,4.9948,4.9865,4.9857,4.9963,4.9963,4.9963,4.9963,4.9963,4.9963,5.0037,5.006,5.0043,5.0062,5.005,5.006,5.0059,5.0055,5.0048,5.0058,5.0062,5.0048,5.0034,5.0035,5.0038,5.0032,5.0034,5.0054,5.0043,4.9966,4.9954,4.9943,4.9935,5.0055,5.0056,5.0125,5.0126,5.0126]}]]